Flag for U.S.A. Weather past 2 weeks in Springfield, Illinois, U.S.A.

Now
54 °F

Clear.


Feels Like: 53 °F
Forecast: 48 / 66 °F
Wind: 6 mph from South

Location: Capital Airport

Current Time: Sep 14, 2014 at 11:11:10 PM

Latest Report: Sep 14, 2014 at 9:52 PM


Visibility: 10 mi

Pressure: 30.18 "Hg

Humidity: 80%

Dew point: 48 °F

Location of SpringfieldLocation

Historic Weather in Springfield — Graph

°F

Springfield temperature yesterday

Maximum temperature yesterday: 63 °F (at 2:52 PM)
Minimum temperature yesterday: 41 °F (at 5:52 AM)
Average temperature yesterday: 51 °F

Past Weeks' High & Low Weather Summary

 TemperatureHumidityPressure
High94 °F (Sep 5, 1:52 PM)97% (Sep 2, 2:52 AM)30.41 "Hg (Sep 2, 2:52 AM)
Low41 °F (Sep 13, 5:52 AM)38% (Sep 14, 5:52 PM)29.64 "Hg (Sep 10, 1:52 PM)
Average68 °F77%30.05 "Hg
* Reported Aug 30 8:52 PM — Sep 14 8:52 PM, Springfield, Weather by CustomWeather, © 2014

Note: Actual official high and low records may vary slightly from our data, if they occured in-between our weather recording intervals... More about our weather records

Advertising

Springfield weather history for previous 24 hours

 ConditionsComfort  
Time TempWeatherWind HumidityBarometerVisibility
8:52 PM
Sep 14
56 °FClear.3 mph84%30.19 "Hg10 mi
7:52 PM56 °FSunny.No wind81%30.19 "Hg10 mi
6:52 PM65 °FSunny.No wind52%30.18 "Hg10 mi
5:52 PM70 °FSunny.No wind38%30.19 "Hg10 mi
4:52 PM69 °FSunny.5 mph39%30.20 "Hg10 mi
3:52 PM69 °FSunny.3 mph39%30.21 "Hg10 mi
2:52 PM70 °FSunny.No wind39%30.22 "Hg10 mi
1:52 PM67 °FSunny.5 mph42%30.26 "Hg10 mi
12:52 PM65 °FSunny.5 mph47%30.29 "Hg10 mi
11:52 AM63 °FSunny.6 mph48%30.30 "Hg10 mi
10:52 AM62 °FScattered clouds.6 mph50%30.32 "Hg10 mi
9:52 AM59 °FSunny.No wind60%30.34 "Hg10 mi
8:52 AM55 °FSunny.3 mph74%30.33 "Hg10 mi
7:52 AM47 °FSunny.No wind90%30.33 "Hg10 mi
6:52 AM42 °FClear.No wind92%30.33 "Hg10 mi
5:52 AM41 °FClear.No wind89%30.32 "Hg10 mi
4:52 AM41 °FClear.No wind93%30.31 "Hg10 mi
3:52 AM41 °FClear.No wind93%30.31 "Hg10 mi
2:52 AM43 °FClear.No wind89%30.31 "Hg10 mi
1:52 AM44 °FClear.No wind89%30.32 "Hg10 mi
12:52 AM45 °FClear.3 mph90%30.33 "Hg10 mi
11:52 PM
Sep 13
44 °FClear.No wind93%30.32 "Hg10 mi
Weather by CustomWeather, © 2014

See weather overviewHow to use our weather pages